www.pogodaiklimat.ru
Время
и дата
11:11 30.12
11:21 30.12
11:51 30.12
12:51 30.12
13:51 30.12
14:51 30.12
15:51 30.12
16:51 30.12
17:51 30.12
18:37 30.12
18:51 30.12
19:51 30.12
20:23 30.12
20:42 30.12
20:51 30.12
21:51 30.12
22:51 30.12
23:31 30.12
23:51 30.12
00:46 31.12
00:51 31.12
01:17 31.12
01:27 31.12
01:51 31.12
02:14 31.12
02:51 31.12
03:51 31.12
04:51 31.12
05:38 31.12
05:51 31.12
06:51 31.12
07:51 31.12
08:51 31.12
09:51 31.12
10:28 31.12
10:51 31.12
11:35 31.12
11:51 31.12
12:51 31.12
13:13 31.12
13:51 31.12
14:41 31.12
14:49 31.12
14:51 31.12
15:51 31.12
16:51 31.12
17:51 31.12
18:08 31.01
Ветер
(напр.,м/с)
Видим. Явления Облачность Т
(С)
Тd
(С)
f
(%)
Тe
(С)
Тes
(С)
Комфортность P
(гПа)
Po
(гПа)
Тmin
(С)
Tmax
(С)
R
(мм)
R24
(мм)
S
(см)
нст 1 11 км 10/10 270 м +8.3 +6.1 86 +6 +6 1009.1
СВ 1 11 км 10/10 480 м +8.3 +5.6 83 +6 +6 1009.1
нст 1 16 км 10/10 510 м +8.9 +6.1 83 +7 +7 1013.6 1008.8
нст 1 13 км 10/10 1110 м +8.9 +6.1 83 +7 +7 1013.1 1008.1 +6.1 +8.9
СВ 1 10 км мгла 10/10 1170 м +8.9 +6.1 83 +7 +7 1012.8 1007.8
СВ 1 11 км 10/10 1050 м +9.4 +6.1 80 +8 +8 1012.6 1007.8
штиль 0 10 км мгла 8/8 660 м +8.9 +6.1 83 +8 +8 1012.5 1007.5
штиль 0 13 км 8/8 960 м +8.3 +5.0 80 +8 +8 1013.0 1008.1
штиль 0 13 км 10/10 960 м +8.9 +5.6 80 +8 +8 1013.6 1008.8
штиль 0 11 км 10/10 570 м +8.9 +5.6 80 +8 +8 1008.8
СЗ 1 11 км 10/10 540 м +8.9 +6.1 83 +7 +7 1013.8 1008.8 +8.3 +9.4
штиль 0 11 км 10/10 480 м +8.9 +6.1 83 +8 +8 1013.6 1008.8
ЮВ 1 10 км мгла 10/10 480 м +9.4 +6.7 83 +8 +8 1008.5
штиль 0 10 км мгла 10/10 420 м +9.4 +6.7 83 +9 +9 1008.8
штиль 0 10 км дымка 10/10 390 м +8.9 +6.7 86 +8 +8 1013.7 1008.8
нст 1 10 км дымка 10/10 390 м +8.9 +6.7 86 +7 +7 1013.9 1008.8
ЮВ 1 8 км дымка 10/10 360 м +9.4 +7.2 86 +8 +8 1013.7 1008.8
ЮЗ 1 8 км дымка 10/10 270 м +9.4 +7.2 86 +8 +8 1008.5
штиль 0 6 км дымка 10/10 270 м +9.4 +7.2 86 +9 +9 1013.6 1008.8
ЮЗ 1 6 км дымка 10/10 300 м +9.0 +8.0 93 +7 +7 1008.5
Ю 1 6 км дымка 10/10 300 м +8.9 +7.8 93 +7 +7 1013.1 1008.1 +8.9 +9.4
нст 1 10 км дымка 10/10 270 м +9.4 +7.8 90 +8 +8 1008.5
штиль 0 8 км дымка 10/10 300 м +9.4 +7.8 90 +9 +9 1008.5
штиль 0 10 км дымка 10/10 300 м +9.4 +7.8 90 +9 +9 1013.4 1008.5
З 1 10 км дымка 10/10 240 м +9.4 +7.8 90 +7 +7 1008.8
нст 1 8 км дымка 10/10 210 м +9.4 +7.8 90 +8 +8 1013.4 1008.5
штиль 0 6 км дымка 10/10 150 м +8.9 +7.8 93 +8 +8 1013.2 1008.5
штиль 0 5 км дымка 10/10 180 м +9.4 +7.8 90 +9 +9 1013.3 1008.5
нст 1 10 км дымка 10/10 330 м +9.4 +7.8 90 +8 +8 1008.5
штиль 0 10 км дымка 10/10 330 м +9.4 +7.8 90 +9 +9 1013.4 1008.5
штиль 0 14 км 10/10 450 м +10.0 +7.2 83 +9 +9 1013.8 1008.8 +8.9 +10.0
штиль 0 11 км 10/10 450 м +10.0 +7.2 83 +9 +9 1014.2 1009.1
штиль 0 11 км 10/10 510 м +10.6 +7.8 83 +10 +10 1014.7 1009.8
штиль 0 13 км 10/10 630 м +11.1 +7.8 80 +11 +11 1014.9 1009.8
нст 1 11 км 5/5 480 м +11.7 +7.8 77 +10 +11 1009.1
нст 1 10 км мгла ясно +11.7 +7.8 77 +11 +14 1014.0 1009.1
ЮЗ 1 10 км мгла 8/8 480 м +11.7 +7.8 77 +11 +11 1008.8
нст 1 10 км мгла 8/8 480 м +11.7 +7.8 77 +11 +11 1013.5 1008.5
ЮЗ 1 14 км 10/10 510 м +11.1 +7.8 80 +9 +9 1013.5 1008.5 +10.0 +12.8
нст 1 16 км 10/10 420 м +11.1 +7.8 80 +10 +10 1008.5
штиль 0 16 км 10/10 420 м +11.1 +7.8 80 +11 +11 1012.9 1008.1
ЮЗ 2 2 км мгла 10/10 450 м +11.1 +7.8 80 +9 +9 1008.5
нст 1 16 км 10/10 450 м +11.0 +8.0 82 +10 +10 1008.5
нст 1 16 км 10/10 450 м +11.1 +7.8 80 +10 +10 1013.4 1008.5
ЮЗ 1 13 км 10/10 420 м +10.6 +7.8 83 +9 +9 1013.3 1008.5
З 1 13 км 10/10 390 м +10.6 +7.2 79 +9 +9 1013.6 1008.8
штиль 0 10 км мгла 10/10 360 м +10.6 +7.8 83 +10 +10 1013.9 1009.1
ЮЗ 1 11 км 10/10 480 м +10.6 +7.8 83 +9 +9 1009.1
Местоположение метеостанции Central Park: широта 40.7833 долгота -73.9667 высота над уровнем моря 47 м.
В архиве по умолчанию представлена погода в Нью-Йорк Сити за последние 1-2 суток. Обновление информации о фактической погоде в базе происходит ежечасно! Архивные данные за месяц целиком и за предыдущие месяцы Вы можете получить, выбрав интересующий диапазон дат из раскрывающегося списка и нажав кнопку "Ввод!".
Внимание! Архив погоды МЕТАР в базе сайта по станциям, не включенным в климатический монитор, хранится не более 60 дней. Нет смысла пытаться выбрать более раннюю дату.
*Определитесь, кто Вы:
Внимание! Время в таблицах - местное (без учета летнего времени). Для получения всемирного времени необходимо вычесть поправку, которая равна -5 ч.
Смотрите также архив погоды в соседних городах и на ближайших метеорологических станциях:
Партнеры нашего сайта:      
Пояснения к столбцам:
  • Ветер - указаны скорость ветра в м/с - средняя за 10 мин, порывы в срок и между сроками (в фигурных скобках) и направление, откуда дует ветер: С - северный,
  • СВ - северо-восточный, В - восточный, ЮВ - юго-восточный, Ю - южный, ЮЗ - юго-западный, З - западный, СЗ - северо-западный.
  • Видимость - горизонтальная дальность видимости в метрах или километрах. При видимости от 1 до 10 км при отсутствии осадков обычно наблюдается дымка, при ухудшении видимости до 1 км и менее - туман. В сухую погоду видимость может ухудшаться дымом, пылью или мглою.
  • Явления - указаны атмосферные явления, наблюдавшиеся в срок или в последний час перед сроком; фигурными скобками обозначены явления, наблюдавшиеся между сроками (за 1-3 часа до срока); квадратными скобками обозначены град или гололедные отложения с указанием их диаметра в мм.
  • Облачность - указаны через наклонную черту общая и нижняя облачность в баллах и высота нижней границы облаков в метрах; квадратными скобками обозначены формы облаков: Ci - перистые, Cs - перисто-слоистые, Cc - перисто-кучевые, Ac - высококучевые, As - высокослоистые, Sc - слоисто-кучевые, Ns - слоисто-дождевые, Cu - кучевые, Cb - кучево-дождевые. Подробнее классификацию облаков см. в Атласе облаков (PDF).
  • T - Температура воздуха - температура, измеренная на высоте 2 м над землей.
  • Td - Температура точки росы - температура, при понижении до которой содержащийся в воздухе водяной пар достигнет насыщения.
  • f - Относительная влажность воздуха - влажноcть воздуха, измеренная на высоте 2 м над землей.
  • Te - Эффективная температура - температура, которую ощущает одетый по сезону человек в тени. Характеристика душности погоды. При расчете учитывается влияние влажности воздуха и скорости ветра на теплоощущения человека.
  • Tes - Эффективная температура на солнце - температура, которую ощущает человек, с поправкой на солнечный нагрев. Характеристика знойности погоды. Зависит от высоты солнца над горизонтом, облачности и скорости ветра. Ночью, в пасмурную погоду, а также при ветре 12 м/с и более поправка равна нулю.
  • P - Атмосферное давление - приведенное к уровню моря атмосферное давление.
  • Po - Атмосферное давление - измеренное на уровне метеостанции атмосферное давление.
  • Tmin - Минимальная температура - минимум температуры воздуха на высоте 2 м над землей.
  • Tmax - Максимальная температура - максимум температуры воздуха на высоте 2 м над землей.
  • R - Количество осадков - Количество выпавших осадков за период времени, мм. При наведении курсора мыши на число - период времени, за который выпало указанное количество осадков.
  • R24 - Количество осадков - Количество выпавших осадков за 24 часа, мм.
  • S - Снежный покров - Высота снежного покрова, см. При наведении курсора мыши на число - состояние снежного покрова и степень покрытия местности в баллах.